+ View the NASA Portal
+ Center for Near-Earth Object Studies
IMPORTANT:
The SSD Announcement email list is now available. Major changes are coming in the near future, including possible hostname and/or URL changes. To be notified of such changes, subscribe to this email list.
Please visit
this page
for more details.
Don't show this message again
JPL Small-Body Database Browser
Search:
[
help
]
312735 (2010 SL36)
Classification:
Main-belt Asteroid
SPK-ID:
2312735
[
Ephemeris
|
Orbit Diagram
|
Orbital Elements
|
Mission Design
|
Physical Parameters
|
Discovery Circumstances
]
[ show orbit diagram ]
Orbital Elements at Epoch 2458600.5 (2019-Apr-27.0) TDB
Reference:
JPL 8
(heliocentric ecliptic J2000)
Element
Value
Uncertainty (1-sigma)
Units
e
.09755860128007936
8.526e-08
a
3.063196541071959
6.0428e-08
au
q
2.764355371079002
2.8656e-07
au
i
9.519438463118352
7.7767e-06
deg
node
13.3628395830293
3.7652e-05
deg
peri
320.0728729082209
4.8895e-05
deg
M
244.1126730842174
3.04e-05
deg
t
p
2459230.868010794093
(2021-Jan-16.36801079)
0.00017223
TDB
period
1958.216570572806
5.36
5.7945e-05
1.586e-07
d
yr
n
.1838407484697644
5.44e-09
deg/d
Q
3.362037711064917
6.6323e-08
au
Orbit Determination Parameters
# obs. used (total)
209
data-arc span
4958 days (13.57 yr)
first obs. used
2005-10-29
last obs. used
2019-05-27
planetary ephem.
DE431
SB-pert. ephem.
SB431-N16
condition code
0
norm. resid. RMS
.51281
source
ORB
producer
Otto Matic
solution date
2019-Sep-24 06:02:16
Additional Information
Earth MOID
= 1.76244 au
Jupiter MOID
= 2.05989 au
T_jup
= 3.205
[ show covariance matrix ]
[
Ephemeris
|
Orbit Diagram
|
Orbital Elements
|
Mission Design
|
Physical Parameters
|
Discovery Circumstances
]
Physical Parameter Table
Parameter
Symbol
Value
Units
Sigma
Reference
Notes
absolute magnitude
H
15.8
n/a
MPO434004
312735 (2010 SL36)
Discovered 2005-Oct-29 by CSS at Catalina
Reference:
20120109/Numbers.arc
Last Updated:
2012-01-11
Alternate Designations
2010 SL36
= 2005 UC447
[
Ephemeris
|
Orbit Diagram
|
Orbital Elements
|
Mission Design
|
Physical Parameters
|
Discovery Circumstances
]
2019-Dec-10 05:45 UT
(server date/time)
Site Manager:
Ryan S. Park
Webmaster
:
Alan B. Chamberlin